DW2789 Weather Reports


Display with metric or nautical units.
time (UTC)temp
F
wind
direction
speed
MPH
gust
MPH
rain 1hr
in
rain 24hr
in
rain mn
in
humidity
%
barometer
mb
20260903194946 65 38 0.0 0.0 0.02 0.04 0.04 51 1010.2
20260903193947 65 38 0.0 0.0 0.01 0.03 0.03 51 1010.3
20260903192938 65 39 0.0 0.0 0.01 0.03 0.03 51 1010.5
20260903191941 64 38 0.0 0.0 0.01 0.03 0.03 49 1010.5
20260903190946 64 38 0.0 0.0 0.02 0.03 0.03 52 1010.6
20260903185948 64 38 0.0 0.0 0.02 0.03 0.03 52 1010.7
20260903184936 63 38 0.0 0.0 0.01 0.02 0.02 51 1010.8
20260903183959 63 39 0.0 0.0 0.01 0.02 0.02 52 1010.8
20260903183002 63 39 1.0 9.0 0.01 0.02 0.02 51 1011.0
20260903182003 63 39 2.0 10.0 0.01 0.02 0.02 52 1011.1
20260903180948 63 38 1.0 9.0 0.00 0.01 0.01 56 1011.2
20260903175934 62 38 1.0 9.0 0.00 0.01 0.01 56 1011.2
20260903174935 63 39 7.0 10.0 0.00 0.01 0.01 54 1011.3
20260903173939 63 39 0.0 0.0 0.01 0.01 0.01 53 1011.3
20260903171936 62 38 0.0 0.0 0.01 0.01 0.01 51 1011.3
20260903171002 62 39 3.0 8.0 0.01 0.01 0.01 52 1011.3
20260903165946 62 38 3.0 13.0 0.01 0.01 0.01 53 1011.4
20260903164948 62 38 2.0 9.0 0.01 0.01 0.01 57 1011.3
20260903163931 61 38 0.0 7.0 0.00 0.00 0.00 58 1011.3
20260903162942 61 38 0.0 0.0 0.00 0.00 0.00 63 1011.2
20260903161945 60 39 0.0 0.0 0.00 0.00 0.00 60 1011.3
20260903160947 59 38 0.0 5.0 0.00 0.00 0.00 65 1011.3
20260903155934 59 39 1.0 9.0 0.00 0.00 0.00 65 1011.2
20260903154941 58 39 3.0 9.0 0.00 0.00 0.00 68 1011.5
20260903154005 57 39 0.0 0.0 0.00 0.00 0.00 73 1011.4
20260903152946 56 39 0.0 0.0 0.00 0.00 0.00 74 1011.4
20260903151931 56 39 0.0 0.0 0.00 0.00 0.00 75 1011.5
20260903150937 56 39 0.0 0.0 0.00 0.00 0.00 76 1011.7
20260903145944 55 38 0.0 0.0 0.00 0.00 0.00 76 1011.8
20260903144930 55 38 0.0 0.0 0.00 0.00 0.00 76 1011.7
20260903143935 55 39 0.0 0.0 0.00 0.00 0.00 75 1011.6
20260903142943 55 38 0.0 6.0 0.00 0.00 0.00 77 1011.5
20260903141929 55 38 1.0 6.0 0.00 0.00 0.00 78 1011.5
20260903140935 55 39 1.0 3.0 0.00 0.00 0.00 78 1011.5
20260903135938 54 39 1.0 5.0 0.00 0.00 0.00 78 1011.4
20260903135000 54 38 1.0 3.0 0.00 0.00 0.00 79 1011.4
20260903134005 54 38 0.0 0.0 0.00 0.00 0.00 77 1011.3
20260903132948 54 38 0.0 4.0 0.00 0.00 0.00 77 1011.2
20260903131951 54 38 0.0 7.0 0.00 0.00 0.00 79 1011.1
20260903130935 54 39 0.0 1.0 0.00 0.00 0.00 82 1011.1
20260903130002 53 39 4.0 8.0 0.00 0.00 0.00 84 1010.9
20260903124945 53 39 0.0 0.0 0.00 0.00 0.00 87 1010.8
20260903123947 54 39 0.0 0.0 0.00 0.00 0.00 88 1010.8
20260903122934 54 39 0.0 0.0 0.00 0.00 0.00 89 1010.7
20260903121941 54 39 0.0 0.0 0.00 0.00 0.00 89 1010.6
20260903120944 54 39 0.0 0.0 0.00 0.00 0.00 89 1010.6
20260903115946 54 39 0.0 0.0 0.00 0.00 0.00 89 1010.5
20260903113945 54 38 0.0 0.0 0.00 0.00 0.00 88 1010.5
20260903112935 54 39 0.0 0.0 0.00 0.00 0.00 88 1010.5
20260903111939 54 38 0.0 0.0 0.00 0.00 0.00 88 1010.5
20260903110940 54 39 0.0 0.0 0.00 0.00 0.00 87 1010.3
20260903105944 54 39 0.0 0.0 0.00 0.00 0.00 86 1010.3
20260903105007 54 39 0.0 0.0 0.00 0.00 0.00 86 1010.2
20260903103933 55 39 0.0 0.0 0.00 0.00 0.00 85 1010.2
20260903102956 55 38 0.0 0.0 0.00 0.00 0.00 85 1010.4
20260903101939 55 38 0.0 0.0 0.00 0.00 0.00 84 1010.3
20260903100943 55 39 0.0 0.0 0.00 0.00 0.00 83 1010.1
20260903095949 55 38 0.0 6.0 0.00 0.00 0.00 83 1010.3
20260903094930 55 38 0.0 0.0 0.00 0.00 0.00 84 1010.2
20260903093936 55 39 0.0 0.0 0.00 0.00 0.00 83 1010.0
20260903093000 55 39 0.0 0.0 0.00 0.00 0.00 83 1009.7
20260903091945 55 39 0.0 0.0 0.00 0.00 0.00 83 1009.7
20260903090947 55 39 0.0 0.0 0.00 0.00 0.00 83 1009.6
20260903085932 55 39 0.0 0.0 0.00 0.00 0.00 83 1009.6
20260903084938 55 38 0.0 0.0 0.00 0.00 0.00 82 1009.5
20260903083946 55 39 0.0 0.0 0.00 0.00 0.00 84 1009.5
20260903082950 55 38 0.0 5.0 0.00 0.00 0.00 82 1009.6
20260903081933 55 39 0.0 7.0 0.00 0.00 0.00 81 1009.6
20260903080957 55 39 2.0 9.0 0.00 0.00 0.00 82 1009.6
20260903075939 55 39 4.0 7.0 0.00 0.00 0.00 82 1009.6
20260903074947 55 39 0.0 5.0 0.00 0.00 0.00 83 1009.6
20260903073950 55 39 1.0 5.0 0.00 0.00 0.00 82 1009.4
20260903072934 55 39 0.0 4.0 0.00 0.00 0.00 82 1009.4
20260903071937 55 39 0.0 4.0 0.00 0.00 0.00 82 1009.4
20260903070947 55 39 0.0 8.0 0.00 0.00 0.00 82 1009.4
20260903064944 55 38 6.0 12.0 0.00 0.00 0.00 82 1009.6
20260903063946 56 38 8.0 16.0 0.00 0.00 0.00 81 1009.7
20260903062936 57 38 13.0 23.0 0.00 0.00 0.00 77 1009.8
20260903061940 59 37 0.0 0.0 0.00 0.00 0.00 78 1009.1
20260903055937 59 38 0.0 0.0 0.00 0.00 0.00 76 1009.0
20260903054940 59 38 0.0 0.0 0.00 0.00 0.00 75 1009.1
20260903053947 60 38 0.0 0.0 0.00 0.00 0.00 74 1009.2
20260903052951 61 38 0.0 0.0 0.00 0.00 0.00 73 1009.2
20260903051934 61 38 0.0 0.0 0.00 0.00 0.00 70 1009.3
20260903050956 61 37 0.0 0.0 0.00 0.00 0.00 68 1009.4
20260903045939 62 38 0.0 0.0 0.00 0.00 0.00 66 1009.3
20260903044945 62 37 0.0 0.0 0.00 0.00 0.00 64 1009.3
20260903043948 62 38 0.0 0.0 0.00 0.00 0.00 64 1009.3
20260903042934 62 38 0.0 0.0 0.00 0.00 0.00 63 1009.3
20260903041958 62 38 0.0 0.0 0.00 0.00 0.00 63 1009.4
20260903040000 63 38 0.0 0.0 0.00 0.00 0.00 62 1009.2
20260903034943 63 38 0.0 6.0 0.00 0.00 0.00 62 1009.3
20260903033945 63 37 0.0 8.0 0.00 0.00 0.00 62 1009.3
20260903032948 62 37 2.0 8.0 0.00 0.00 0.00 62 1009.1
20260903030952 63 37 0.0 10.0 0.00 0.00 0.00 62 1008.9
20260903025935 62 37 0.0 10.0 0.00 0.00 0.00 62 1008.7
20260903024938 62 38 0.0 0.0 0.00 0.00 0.00 63 1008.7
20260903023942 62 38 0.0 6.0 0.00 0.00 0.00 63 1008.7
20260903022950 62 37 2.0 10.0 0.00 0.00 0.00 63 1008.6
20260903021951 62 38 4.0 9.0 0.00 0.00 0.00 64 1008.7
20260903020955 63 37 4.0 13.0 0.00 0.00 0.00 65 1008.8
20260903015957 63 38 7.0 13.0 0.00 0.00 0.00 64 1008.8
20260903014937 64 38 7.0 15.0 0.00 0.00 0.00 62 1008.7
20260903013945 66 38 9.0 17.0 0.00 0.00 0.00 58 1008.6
20260903012947 66 38 10.0 16.0 0.00 0.00 0.00 55 1008.4
20260903010944 67 38 16.0 22.0 0.00 0.00 0.00 51 1008.3
20260903005946 68 40 12.0 18.0 0.00 0.00 0.00 50 1008.1
20260903004936 68 40 0.0 0.0 0.00 0.00 0.00 52 1008.1
20260903004000 68 40 0.0 8.0 0.00 0.00 0.00 51 1008.1
20260903002943 68 40 6.0 10.0 0.00 0.00 0.00 50 1008.0
20260903001948 69 40 5.0 12.0 0.00 0.00 0.00 49 1007.9
20260903000934 69 40 7.0 14.0 0.00 0.00 0.00 48 1007.9
20260902235938 70 40 14.0 22.0 0.00 0.00 0.00 45 1007.7
20260902234941 70 41 7.0 15.0 0.00 0.00 0.00 50 1007.5
20260902234005 71 41 12.0 22.0 0.00 0.00 0.00 48 1007.3
20260902232946 73 42 11.0 17.0 0.00 0.00 0.00 41 1006.9
20260902231934 73 42 4.0 14.0 0.00 0.00 0.00 44 1006.8
20260902230938 72 43 9.0 15.0 0.00 0.00 0.00 45 1007.0
20260902225940 73 43 16.0 26.0 0.00 0.00 0.00 42 1006.8
20260902224943 75 48 5.0 14.0 0.00 0.00 0.00 39 1006.2
20260902223950 76 48 0.0 0.0 0.00 0.00 0.00 42 1006.0
20260902222933 76 48 0.0 0.0 0.00 0.00 0.00 41 1005.8
20260902221939 76 48 0.0 2.0 0.00 0.00 0.00 43 1005.6
20260902220943 75 48 0.0 2.0 0.00 0.00 0.00 43 1005.5
20260902215950 75 48 0.0 2.0 0.00 0.00 0.00 43 1005.8
20260902214933 75 48 0.0 2.0 0.00 0.00 0.00 41 1005.9
20260902212949 77 48 1.0 7.0 0.00 0.00 0.00 42 1006.1
20260902211936 78 48 1.0 5.0 0.00 0.00 0.00 39 1006.2
20260902210958 78 48 2.0 8.0 0.00 0.00 0.00 43 1006.3
20260902205943 78 48 0.0 5.0 0.00 0.00 0.00 41 1006.5
20260902204947 77 48 0.0 0.0 0.00 0.00 0.00 42 1006.6
20260902203930 76 48 0.0 0.0 0.00 0.00 0.00 43 1006.7
20260902202937 75 48 0.0 0.0 0.00 0.00 0.00 40 1006.6
20260902202001 75 48 0.0 0.0 0.00 0.00 0.00 43 1006.8
20260902200943 75 48 0.0 3.0 0.00 0.00 0.00 40 1006.9
20260902195947 75 48 0.0 3.0 0.00 0.00 0.00 42 1007.0